This demonstration page uses our WeatherBlox Daily Observations layout. Learn more.

Left ArrowRight Arrow

Hourly Observations for November 15, 2020

Temp ( °F °C ) Dew Point ( °F °C ) Humidity (%) Winds ( mph kmh ) Pressure ( in mb ) Visibility ( mi km ) Precip ( " mm )
12:15 am 00:15 Cloudy 50 10 46 8 88 88 SE 16 26 29.69 1005 10 16 N/A
12:35 am 00:35 Mostly Cloudy 52 11 46 8 82 82 SSE 17 28 29.67 1005 10 16 N/A
12:55 am 00:55 Mostly Cloudy 52 11 46 8 82 82 SSE 16 26 29.66 1004 10 16 N/A
1:15 am 01:15 Mostly Cloudy 54 12 46 8 77 77 SSE 15 24 29.62 1003 10 16 N/A
1:35 am 01:35 Cloudy 55 13 48 9 77 77 SSE 17 28 29.60 1002 10 16 N/A
1:55 am 01:55 Mostly Cloudy 55 13 48 9 77 77 SSE 16 26 29.58 1002 10 16 N/A
2:15 am 02:15 Partly Cloudy 55 13 50 10 82 82 S 18 30 29.56 1001 10 16 N/A
2:35 am 02:35 Mostly Cloudy 57 14 50 10 77 77 S 22 35 29.55 1001 10 16 N/A
2:55 am 02:55 Mostly Cloudy 57 14 52 11 82 82 S 24 39 29.53 1000 10 16 N/A
3:15 am 03:15 Mostly Cloudy 57 14 52 11 82 82 S 18 30 29.53 1000 10 16 N/A
3:35 am 03:35 Cloudy 55 13 54 12 94 94 SW 16 26 29.55 1001 10 16 N/A
3:55 am 03:55 Cloudy 57 14 55 13 94 94 WSW 13 20 29.57 1001 7 11 N/A
4:15 am 04:15 Cloudy 54 12 54 12 100 100 WSW 10 17 29.58 1002 7 11 N/A
4:35 am 04:35 Cloudy 54 12 54 12 100 100 SW 8 13 29.57 1001 5 8 N/A
4:55 am 04:55 Cloudy 54 12 54 12 100 100 SW 9 15 29.56 1001 3 4 N/A
5:15 am 05:15 Cloudy 54 12 54 12 100 100 SW 9 15 29.56 1001 4 6 N/A
5:35 am 05:35 Cloudy 54 12 54 12 100 100 SSW 6 9 29.56 1001 7 11 N/A
5:55 am 05:55 Cloudy 54 12 54 12 100 100 SW 7 11 29.55 1001 5 8 N/A
6:15 am 06:15 Cloudy 54 12 54 12 100 100 SSW 10 17 29.56 1001 10 16 N/A
6:35 am 06:35 Cloudy 54 12 54 12 100 100 S 12 19 29.53 1000 7 11 N/A
6:55 am 06:55 Cloudy 54 12 54 12 100 100 SSE 13 20 29.49 999 10 16 N/A
7:15 am 07:15 Cloudy 54 12 54 12 100 100 S 13 20 29.48 998 10 16 N/A
7:35 am 07:35 Mostly Cloudy 54 12 54 12 100 100 S 12 19 29.49 999 10 16 N/A
7:55 am 07:55 Mostly Cloudy 54 12 54 12 100 100 S 14 22 29.51 999 10 16 N/A
8:15 am 08:15 Cloudy 54 12 54 12 100 100 S 16 26 29.51 999 10 16 N/A
8:35 am 08:35 Cloudy 54 12 54 12 100 100 SSW 17 28 29.52 1000 10 16 N/A
8:55 am 08:55 Cloudy 54 12 54 12 100 100 SW 21 33 29.54 1000 10 16 N/A
9:15 am 09:15 Cloudy 54 12 54 12 100 100 SW 23 37 29.55 1001 10 16 N/A
9:35 am 09:35 Cloudy 50 10 50 10 100 100 WSW 22 35 29.58 1002 5 8 N/A
9:55 am 09:55 Cloudy 48 9 48 9 100 100 WSW 29 46 29.63 1004 10 16 N/A
10:15 am 10:15 Mostly Cloudy 48 9 45 7 87 87 WSW 28 44 29.66 1005 10 16 N/A
10:35 am 10:35 Mostly Cloudy 46 8 43 6 87 87 WSW 32 52 29.70 1006 10 16 N/A
10:55 am 10:55 Cloudy 46 8 41 5 82 82 WSW 31 50 29.71 1006 10 16 N/A
11:15 am 11:15 Cloudy 46 8 41 5 82 82 W 36 57 29.73 1007 10 16 N/A
11:35 am 11:35 Cloudy 45 7 41 5 87 87 WSW 28 44 29.74 1007 10 16 N/A
11:55 am 11:55 Cloudy 45 7 41 5 87 87 W 36 57 29.75 1007 10 16 N/A
12:15 pm 12:15 Cloudy 45 7 41 5 87 87 W 30 48 29.77 1008 10 16 N/A
12:35 pm 12:35 Cloudy 45 7 41 5 87 87 WSW 31 50 29.78 1008 10 16 N/A
12:55 pm 12:55 Cloudy 45 7 39 4 81 81 WSW 36 57 29.80 1009 10 16 N/A
1:15 pm 13:15 Cloudy 45 7 39 4 81 81 WSW 35 56 29.81 1009 10 16 N/A
1:35 pm 13:35 Cloudy 45 7 41 5 87 87 W 25 41 29.82 1010 10 16 N/A
1:55 pm 13:55 Cloudy 43 6 43 6 100 100 W 24 39 29.84 1011 10 16 N/A
2:15 pm 14:15 Cloudy 45 7 39 4 81 81 W 30 48 29.84 1011 10 16 N/A
2:35 pm 14:35 Cloudy 45 7 41 5 87 87 WSW 23 37 29.85 1011 10 16 N/A
2:55 pm 14:55 Cloudy 45 7 41 5 87 87 WSW 25 41 29.86 1011 10 16 N/A
3:15 pm 15:15 Mostly Cloudy 45 7 37 3 76 76 WSW 31 50 29.87 1012 10 16 N/A
3:35 pm 15:35 Cloudy 45 7 37 3 76 76 WSW 26 43 29.88 1012 10 16 N/A
3:55 pm 15:55 Cloudy 46 8 36 2 66 66 WSW 30 48 29.89 1012 10 16 N/A
4:15 pm 16:15 Cloudy 45 7 34 1 66 66 WSW 29 46 29.91 1013 10 16 N/A
4:35 pm 16:35 Cloudy 46 8 36 2 66 66 W 26 43 29.92 1013 10 16 N/A
4:55 pm 16:55 Mostly Cloudy 45 7 36 2 71 71 WSW 18 30 29.93 1014 10 16 N/A
5:15 pm 17:15 Mostly Cloudy 45 7 36 2 71 71 WSW 17 28 29.94 1014 10 16 N/A
5:35 pm 17:35 Cloudy 45 7 37 3 76 76 WSW 18 30 29.95 1014 10 16 N/A
5:55 pm 17:55 Cloudy 45 7 36 2 71 71 WSW 20 31 29.96 1015 10 16 N/A
6:15 pm 18:15 Cloudy 45 7 36 2 71 71 W 28 44 29.98 1015 10 16 N/A
6:35 pm 18:35 Cloudy 43 6 36 2 76 76 WSW 22 35 29.99 1016 10 16 N/A
6:55 pm 18:55 Cloudy 43 6 36 2 76 76 W 21 33 30.00 1016 10 16 N/A
7:15 pm 19:15 Cloudy 43 6 36 2 76 76 WSW 15 24 30.01 1016 10 16 N/A
7:35 pm 19:35 Cloudy 43 6 36 2 76 76 WSW 18 30 30.01 1016 10 16 N/A
7:55 pm 19:55 Cloudy 43 6 36 2 76 76 SW 20 31 30.02 1017 10 16 N/A
8:15 pm 20:15 Cloudy 43 6 36 2 76 76 SW 20 31 30.02 1017 10 16 N/A
8:35 pm 20:35 Cloudy 43 6 36 2 76 76 SW 18 30 30.02 1017 10 16 N/A
8:55 pm 20:55 Cloudy 45 7 36 2 71 71 WSW 21 33 30.02 1017 10 16 N/A
9:15 pm 21:15 Cloudy 45 7 36 2 71 71 WSW 22 35 30.03 1017 10 16 N/A
9:35 pm 21:35 Cloudy 43 6 36 2 76 76 WSW 17 28 30.03 1017 10 16 N/A
9:55 pm 21:55 Cloudy 43 6 36 2 76 76 WSW 17 28 30.04 1017 10 16 N/A
10:15 pm 22:15 Cloudy 43 6 36 2 76 76 WSW 17 28 30.05 1018 10 16 N/A
10:35 pm 22:35 Partly Cloudy 43 6 34 1 71 71 WSW 18 30 30.06 1018 10 16 N/A
10:55 pm 22:55 Clear 43 6 34 1 71 71 W 16 26 30.07 1018 10 16 N/A
11:15 pm 23:15 Clear 41 5 32 undefined 70 70 W 22 35 30.08 1019 10 16 N/A
11:35 pm 23:35 Clear 41 5 32 undefined 70 70 W 18 30 30.09 1019 10 16 N/A
11:55 pm 23:55 Clear 41 5 32 undefined 70 70 W 15 24 30.09 1019 10 16 N/A

Powered by AerisWeather